Year,Month,Day,Hour,Minute,Value (Times are PST for temperature in C)
2008,04,03,00,00,3.40
2008,04,03,00,01,3.30
2008,04,03,00,02,3.30
2008,04,03,00,03,3.30
2008,04,03,00,04,3.30
2008,04,03,00,05,3.20
2008,04,03,00,06,3.20
2008,04,03,00,07,3.20
2008,04,03,00,08,3.20
2008,04,03,00,09,3.10
2008,04,03,00,10,3.10
2008,04,03,00,11,3.10
2008,04,03,00,12,3.00
2008,04,03,00,13,3.00
2008,04,03,00,14,2.90
2008,04,03,00,15,2.90
2008,04,03,00,16,2.80
2008,04,03,00,17,2.80
2008,04,03,00,18,2.80
2008,04,03,00,19,2.80
2008,04,03,00,20,2.80
2008,04,03,00,21,2.80
2008,04,03,00,22,2.80
2008,04,03,00,23,2.70
2008,04,03,00,24,2.80
2008,04,03,00,25,2.80
2008,04,03,00,26,2.80
2008,04,03,00,27,2.80
2008,04,03,00,28,2.80
2008,04,03,00,29,2.70
2008,04,03,00,30,2.70
2008,04,03,00,31,2.70
2008,04,03,00,32,2.70
2008,04,03,00,33,2.70
2008,04,03,00,34,2.60
2008,04,03,00,35,2.60
2008,04,03,00,36,2.60
2008,04,03,00,37,2.50
2008,04,03,00,38,2.50
2008,04,03,00,39,2.40
2008,04,03,00,40,2.40
2008,04,03,00,41,2.40
2008,04,03,00,42,2.30
2008,04,03,00,43,2.30
2008,04,03,00,44,2.30
2008,04,03,00,45,2.30
2008,04,03,00,46,2.20
2008,04,03,00,47,2.20
2008,04,03,00,48,2.20
2008,04,03,00,49,2.20
2008,04,03,00,50,2.10
2008,04,03,00,51,2.10
2008,04,03,00,52,2.10
2008,04,03,00,53,2.10
2008,04,03,00,54,2.20
2008,04,03,00,55,2.20
2008,04,03,00,56,2.10
2008,04,03,00,57,2.20
2008,04,03,00,58,2.20
2008,04,03,00,59,2.20
2008,04,03,01,00,2.20
2008,04,03,01,01,2.20
2008,04,03,01,02,2.20
2008,04,03,01,03,2.20
2008,04,03,01,04,2.20
2008,04,03,01,05,2.20
2008,04,03,01,06,2.20
2008,04,03,01,07,2.20
2008,04,03,01,08,2.10
2008,04,03,01,09,2.10
2008,04,03,01,10,2.10
2008,04,03,01,11,2.10
2008,04,03,01,12,2.10
2008,04,03,01,13,2.10
2008,04,03,01,14,2.10
2008,04,03,01,15,2.00
2008,04,03,01,16,2.00
2008,04,03,01,17,2.00
2008,04,03,01,18,2.00
2008,04,03,01,19,1.90
2008,04,03,01,20,1.90
2008,04,03,01,21,1.90
2008,04,03,01,22,1.90
2008,04,03,01,23,1.90
2008,04,03,01,24,1.90
2008,04,03,01,25,1.90
2008,04,03,01,26,1.90
2008,04,03,01,27,1.90
2008,04,03,01,28,1.90
2008,04,03,01,29,1.80
2008,04,03,01,30,1.80
2008,04,03,01,31,1.80
2008,04,03,01,32,1.80
2008,04,03,01,33,1.90
2008,04,03,01,34,1.90
2008,04,03,01,35,1.90
2008,04,03,01,36,2.00
2008,04,03,01,37,2.10
2008,04,03,01,38,2.10
2008,04,03,01,39,2.10
2008,04,03,01,40,2.20
2008,04,03,01,41,2.20
2008,04,03,01,42,2.20
2008,04,03,01,43,2.20
2008,04,03,01,44,2.30
2008,04,03,01,45,2.30
2008,04,03,01,46,2.30
2008,04,03,01,47,2.30
2008,04,03,01,48,2.30
2008,04,03,01,49,2.30
2008,04,03,01,50,2.30
2008,04,03,01,51,2.30
2008,04,03,01,52,2.30
2008,04,03,01,53,2.30
2008,04,03,01,54,2.30
2008,04,03,01,55,2.30
2008,04,03,01,56,2.30
2008,04,03,01,57,2.30
2008,04,03,01,58,2.30
2008,04,03,01,59,2.30
2008,04,03,02,00,2.30
2008,04,03,02,01,2.30
2008,04,03,02,02,2.30
2008,04,03,02,03,2.30
2008,04,03,02,04,2.30
2008,04,03,02,05,2.30
2008,04,03,02,06,2.30
2008,04,03,02,07,2.30
2008,04,03,02,08,2.30
2008,04,03,02,09,2.20
2008,04,03,02,10,2.20
2008,04,03,02,11,2.20
2008,04,03,02,12,2.20
2008,04,03,02,13,2.20
2008,04,03,02,14,2.10
2008,04,03,02,15,2.10
2008,04,03,02,16,2.10
2008,04,03,02,17,2.10
2008,04,03,02,18,2.00
2008,04,03,02,19,2.00
2008,04,03,02,20,2.00
2008,04,03,02,21,2.00
2008,04,03,02,22,2.00
2008,04,03,02,23,2.00
2008,04,03,02,24,2.00
2008,04,03,02,25,2.00
2008,04,03,02,26,2.00
2008,04,03,02,27,2.00
2008,04,03,02,28,2.00
2008,04,03,02,29,2.00
2008,04,03,02,30,1.90
2008,04,03,02,31,1.90
2008,04,03,02,32,1.90
2008,04,03,02,33,1.90
2008,04,03,02,34,1.80
2008,04,03,02,35,1.80
2008,04,03,02,36,1.80
2008,04,03,02,37,1.80
2008,04,03,02,38,1.80
2008,04,03,02,39,1.70
2008,04,03,02,40,1.70
2008,04,03,02,41,1.70
2008,04,03,02,42,1.60
2008,04,03,02,43,1.60
2008,04,03,02,44,1.60
2008,04,03,02,45,1.60
2008,04,03,02,46,1.60
2008,04,03,02,47,1.50
2008,04,03,02,48,1.50
2008,04,03,02,49,1.50
2008,04,03,02,50,1.50
2008,04,03,02,51,1.50
2008,04,03,02,52,1.50
2008,04,03,02,53,1.50
2008,04,03,02,54,1.50
2008,04,03,02,55,1.50
2008,04,03,02,56,1.60
2008,04,03,02,57,1.60
2008,04,03,02,58,1.60
2008,04,03,02,59,1.70
2008,04,03,03,00,1.70
2008,04,03,03,01,1.70
2008,04,03,03,02,1.80
2008,04,03,03,03,1.80
2008,04,03,03,04,1.80
2008,04,03,03,05,1.80
2008,04,03,03,06,1.80
2008,04,03,03,07,1.80
2008,04,03,03,08,1.80
2008,04,03,03,09,1.80
2008,04,03,03,10,1.80
2008,04,03,03,11,1.80
2008,04,03,03,12,1.80
2008,04,03,03,13,1.80
2008,04,03,03,14,1.70
2008,04,03,03,15,1.70
2008,04,03,03,16,1.70
2008,04,03,03,17,1.70
2008,04,03,03,18,1.60
2008,04,03,03,19,1.60
2008,04,03,03,20,1.60
2008,04,03,03,21,1.60
2008,04,03,03,22,1.70
2008,04,03,03,23,1.70
2008,04,03,03,24,1.70
2008,04,03,03,25,1.70
2008,04,03,03,26,1.70
2008,04,03,03,27,1.70
2008,04,03,03,28,1.70
2008,04,03,03,29,1.70
2008,04,03,03,30,1.60
2008,04,03,03,31,1.50
2008,04,03,03,32,1.50
2008,04,03,03,33,1.40
2008,04,03,03,34,1.30
2008,04,03,03,35,1.30
2008,04,03,03,36,1.30
2008,04,03,03,37,1.30
2008,04,03,03,38,1.30
2008,04,03,03,39,1.20
2008,04,03,03,40,1.20
2008,04,03,03,41,1.10
2008,04,03,03,42,1.00
2008,04,03,03,43,1.00
2008,04,03,03,44,0.90
2008,04,03,03,45,0.90
2008,04,03,03,46,0.80
2008,04,03,03,47,0.70
2008,04,03,03,48,0.70
2008,04,03,03,49,0.70
2008,04,03,03,50,0.60
2008,04,03,03,51,0.60
2008,04,03,03,52,0.60
2008,04,03,03,53,0.60
2008,04,03,03,54,0.50
2008,04,03,03,55,0.50
2008,04,03,03,56,0.50
2008,04,03,03,57,0.50
2008,04,03,03,58,0.50
2008,04,03,03,59,0.50
2008,04,03,04,00,0.40
2008,04,03,04,01,0.40
2008,04,03,04,02,0.40
2008,04,03,04,03,0.40
2008,04,03,04,04,0.40
2008,04,03,04,05,0.40
2008,04,03,04,06,0.40
2008,04,03,04,07,0.40
2008,04,03,04,08,0.40
2008,04,03,04,09,0.40
2008,04,03,04,10,0.40
2008,04,03,04,11,0.40
2008,04,03,04,12,0.40
2008,04,03,04,13,0.40
2008,04,03,04,14,0.30
2008,04,03,04,15,0.30
2008,04,03,04,16,0.30
2008,04,03,04,17,0.30
2008,04,03,04,18,0.30
2008,04,03,04,19,0.30
2008,04,03,04,20,0.20
2008,04,03,04,21,0.20
2008,04,03,04,22,0.30
2008,04,03,04,23,0.30
2008,04,03,04,24,0.30
2008,04,03,04,25,0.30
2008,04,03,04,26,0.30
2008,04,03,04,27,0.40
2008,04,03,04,28,0.40
2008,04,03,04,29,0.40
2008,04,03,04,30,0.40
2008,04,03,04,31,0.40
2008,04,03,04,32,0.40
2008,04,03,04,33,0.40
2008,04,03,04,34,0.40
2008,04,03,04,35,0.40
2008,04,03,04,36,0.40
2008,04,03,04,37,0.40
2008,04,03,04,38,0.30
2008,04,03,04,39,0.30
2008,04,03,04,40,0.30
2008,04,03,04,41,0.20
2008,04,03,04,42,0.20
2008,04,03,04,43,0.20
2008,04,03,04,44,0.10
2008,04,03,04,45,0.10
2008,04,03,04,46,0.10
2008,04,03,04,47,0.00
2008,04,03,04,48,0.00
2008,04,03,04,49,0.00
2008,04,03,04,50,0.00
2008,04,03,04,51,-0.10
2008,04,03,04,52,-0.10
2008,04,03,04,53,-0.10
2008,04,03,04,54,-0.10
2008,04,03,04,55,-0.10
2008,04,03,04,56,-0.20
2008,04,03,04,57,-0.20
2008,04,03,04,58,-0.20
2008,04,03,04,59,-0.20
2008,04,03,05,00,-0.20
2008,04,03,05,01,-0.20
2008,04,03,05,02,-0.20
2008,04,03,05,03,-0.20
2008,04,03,05,04,-0.20
2008,04,03,05,05,-0.20
2008,04,03,05,06,-0.20
2008,04,03,05,07,-0.20
2008,04,03,05,08,-0.20
2008,04,03,05,09,-0.30
2008,04,03,05,10,-0.30
2008,04,03,05,11,-0.30
2008,04,03,05,12,-0.30
2008,04,03,05,13,-0.30
2008,04,03,05,14,-0.30
2008,04,03,05,15,-0.30
2008,04,03,05,16,-0.30
2008,04,03,05,17,-0.40
2008,04,03,05,18,-0.40
2008,04,03,05,19,-0.40
2008,04,03,05,20,-0.40
2008,04,03,05,21,-0.40
2008,04,03,05,22,-0.40
2008,04,03,05,23,-0.40
2008,04,03,05,24,-0.40
2008,04,03,05,25,-0.40
2008,04,03,05,26,-0.40
2008,04,03,05,27,-0.50
2008,04,03,05,28,-0.40
2008,04,03,05,29,-0.40
2008,04,03,05,30,-0.40
2008,04,03,05,31,-0.40
2008,04,03,05,32,-0.40
2008,04,03,05,33,-0.40
2008,04,03,05,34,-0.40
2008,04,03,05,35,-0.40
2008,04,03,05,36,-0.30
2008,04,03,05,37,-0.30
2008,04,03,05,38,-0.30
2008,04,03,05,39,-0.30
2008,04,03,05,40,-0.30
2008,04,03,05,41,-0.30
2008,04,03,05,42,-0.30
2008,04,03,05,43,-0.30
2008,04,03,05,44,-0.30
2008,04,03,05,45,-0.30
2008,04,03,05,46,-0.30
2008,04,03,05,47,-0.30
2008,04,03,05,48,-0.30
2008,04,03,05,49,-0.30
2008,04,03,05,50,-0.30
2008,04,03,05,51,-0.30
2008,04,03,05,52,-0.30
2008,04,03,05,53,-0.30
2008,04,03,05,54,-0.30
2008,04,03,05,55,-0.30
2008,04,03,05,56,-0.20
2008,04,03,05,57,-0.20
2008,04,03,05,58,-0.20
2008,04,03,05,59,-0.20
2008,04,03,06,00,-0.20
2008,04,03,06,01,-0.20
2008,04,03,06,02,-0.20
2008,04,03,06,03,-0.20
2008,04,03,06,04,-0.20
2008,04,03,06,05,-0.20
2008,04,03,06,06,-0.20
2008,04,03,06,07,-0.20
2008,04,03,06,08,-0.20
2008,04,03,06,09,-0.20
2008,04,03,06,10,-0.20
2008,04,03,06,11,-0.30
2008,04,03,06,12,-0.30
2008,04,03,06,13,-0.30
2008,04,03,06,14,-0.30
2008,04,03,06,15,-0.30
2008,04,03,06,16,-0.30
2008,04,03,06,17,-0.30
2008,04,03,06,18,-0.30
2008,04,03,06,19,-0.30
2008,04,03,06,20,-0.30
2008,04,03,06,21,-0.30
2008,04,03,06,22,-0.20
2008,04,03,06,23,-0.20
2008,04,03,06,24,-0.10
2008,04,03,06,25,-0.10
2008,04,03,06,26,-0.10
2008,04,03,06,27,-0.10
2008,04,03,06,28,-0.10
2008,04,03,06,29,-0.10
2008,04,03,06,30,-0.20
2008,04,03,06,31,-0.20
2008,04,03,06,32,-0.20
2008,04,03,06,33,-0.20
2008,04,03,06,34,-0.20
2008,04,03,06,35,-0.20
2008,04,03,06,36,-0.20
2008,04,03,06,37,-0.30
2008,04,03,06,38,-0.30
2008,04,03,06,39,-0.30
2008,04,03,06,40,-0.30
2008,04,03,06,41,-0.30
2008,04,03,06,42,-0.30
2008,04,03,06,43,-0.40
2008,04,03,06,44,-0.40
2008,04,03,06,45,-0.40
2008,04,03,06,46,-0.40
2008,04,03,06,47,-0.40
2008,04,03,06,48,-0.40
2008,04,03,06,49,-0.40
2008,04,03,06,50,-0.30
2008,04,03,06,51,-0.30
2008,04,03,06,52,-0.20
2008,04,03,06,53,-0.10
2008,04,03,06,54,0.00
2008,04,03,06,55,0.10
2008,04,03,06,56,0.20
2008,04,03,06,57,0.20
2008,04,03,06,58,0.30
2008,04,03,06,59,0.30
2008,04,03,07,00,0.40
2008,04,03,07,01,0.40
2008,04,03,07,02,0.50
2008,04,03,07,03,0.60
2008,04,03,07,04,0.60
2008,04,03,07,05,0.80
2008,04,03,07,06,0.80
2008,04,03,07,07,0.90
2008,04,03,07,08,1.00
2008,04,03,07,09,1.10
2008,04,03,07,10,1.20
2008,04,03,07,11,1.20
2008,04,03,07,12,1.30
2008,04,03,07,13,1.30
2008,04,03,07,14,1.30
2008,04,03,07,15,1.30
2008,04,03,07,16,1.30
2008,04,03,07,17,1.30
2008,04,03,07,18,1.40
2008,04,03,07,19,1.40
2008,04,03,07,20,1.50
2008,04,03,07,21,1.50
2008,04,03,07,22,1.60
2008,04,03,07,23,1.60
2008,04,03,07,24,1.60
2008,04,03,07,25,1.70
2008,04,03,07,26,1.70
2008,04,03,07,27,1.70
2008,04,03,07,28,1.80
2008,04,03,07,29,1.80
2008,04,03,07,30,1.80
2008,04,03,07,31,1.80
2008,04,03,07,32,1.80
2008,04,03,07,33,1.80
2008,04,03,07,34,1.80
2008,04,03,07,35,1.70
2008,04,03,07,36,1.70
2008,04,03,07,37,1.70
2008,04,03,07,38,1.70
2008,04,03,07,39,1.70
2008,04,03,07,40,1.60
2008,04,03,07,41,1.60
2008,04,03,07,42,1.60
2008,04,03,07,43,1.50
2008,04,03,07,44,1.50
2008,04,03,07,45,1.50
2008,04,03,07,46,1.50
2008,04,03,07,47,1.50
2008,04,03,07,48,1.50
2008,04,03,07,49,1.50
2008,04,03,07,50,1.50
2008,04,03,07,51,1.50
2008,04,03,07,52,1.60
2008,04,03,07,53,1.60
2008,04,03,07,54,1.70
2008,04,03,07,55,1.70
2008,04,03,07,56,1.80
2008,04,03,07,57,1.90
2008,04,03,07,58,2.00
2008,04,03,07,59,2.20
2008,04,03,08,00,2.20
2008,04,03,08,01,2.40
2008,04,03,08,02,2.50
2008,04,03,08,03,2.60
2008,04,03,08,04,2.80
2008,04,03,08,05,2.90
2008,04,03,08,06,3.00
2008,04,03,08,07,3.10
2008,04,03,08,08,3.20
2008,04,03,08,09,3.30
2008,04,03,08,10,3.40
2008,04,03,08,11,3.40
2008,04,03,08,12,3.50
2008,04,03,08,13,3.60
2008,04,03,08,14,3.70
2008,04,03,08,15,3.80
2008,04,03,08,16,3.80
2008,04,03,08,17,3.90
2008,04,03,08,18,3.90
2008,04,03,08,19,4.00
2008,04,03,08,20,4.00
2008,04,03,08,21,4.10
2008,04,03,08,22,4.10
2008,04,03,08,23,4.20
2008,04,03,08,24,4.20
2008,04,03,08,25,4.30
2008,04,03,08,26,4.30
2008,04,03,08,27,4.30
2008,04,03,08,28,4.40
2008,04,03,08,29,4.40
2008,04,03,08,30,4.50
2008,04,03,08,31,4.50
2008,04,03,08,32,4.60
2008,04,03,08,33,4.60
2008,04,03,08,34,4.70
2008,04,03,08,35,4.80
2008,04,03,08,36,4.80
2008,04,03,08,37,4.90
2008,04,03,08,38,5.00
2008,04,03,08,39,5.20
2008,04,03,08,40,5.30
2008,04,03,08,41,5.40
2008,04,03,08,42,5.50
2008,04,03,08,43,5.60
2008,04,03,08,44,5.80
2008,04,03,08,45,5.90
2008,04,03,08,46,6.00
2008,04,03,08,47,6.10
2008,04,03,08,48,6.10
2008,04,03,08,49,6.20
2008,04,03,08,50,6.30
2008,04,03,08,51,6.40
2008,04,03,08,52,6.50
2008,04,03,08,53,6.70
2008,04,03,08,54,6.80
2008,04,03,08,55,6.90
2008,04,03,08,56,6.90
2008,04,03,08,57,7.00
2008,04,03,08,58,7.00
2008,04,03,08,59,7.10
2008,04,03,09,00,7.00
2008,04,03,09,01,7.00
2008,04,03,09,02,6.90
2008,04,03,09,03,6.90
2008,04,03,09,04,6.80
2008,04,03,09,05,6.80
2008,04,03,09,06,6.90
2008,04,03,09,07,6.90
2008,04,03,09,08,7.00
2008,04,03,09,09,7.00
2008,04,03,09,10,7.10
2008,04,03,09,11,7.20
2008,04,03,09,12,7.20
2008,04,03,09,13,7.20
2008,04,03,09,14,7.20
2008,04,03,09,15,7.30
2008,04,03,09,16,7.30
2008,04,03,09,17,7.40
2008,04,03,09,18,7.40
2008,04,03,09,19,7.40
2008,04,03,09,20,7.50
2008,04,03,09,21,7.50
2008,04,03,09,22,7.50
2008,04,03,09,23,7.50
2008,04,03,09,24,7.60
2008,04,03,09,25,7.60
2008,04,03,09,26,7.50
2008,04,03,09,27,7.50
2008,04,03,09,28,7.40
2008,04,03,09,29,7.30
2008,04,03,09,30,7.30
2008,04,03,09,31,7.30
2008,04,03,09,32,7.20
2008,04,03,09,33,7.20
2008,04,03,09,34,7.20
2008,04,03,09,35,7.20
2008,04,03,09,36,7.20
2008,04,03,09,37,7.20
2008,04,03,09,38,7.20
2008,04,03,09,39,7.20
2008,04,03,09,40,7.20
2008,04,03,09,41,7.10
2008,04,03,09,42,7.10
2008,04,03,09,43,7.10
2008,04,03,09,44,7.10
2008,04,03,09,45,7.10
2008,04,03,09,46,7.10
2008,04,03,09,47,7.20
2008,04,03,09,48,7.20
2008,04,03,09,49,7.20
2008,04,03,09,50,7.20
2008,04,03,09,51,7.20
2008,04,03,09,52,7.20
2008,04,03,09,53,7.20
2008,04,03,09,54,7.30
2008,04,03,09,55,7.30
2008,04,03,09,56,7.30
2008,04,03,09,57,7.30
2008,04,03,09,58,7.30
2008,04,03,09,59,7.30
2008,04,03,10,00,7.30
2008,04,03,10,01,7.20
2008,04,03,10,02,7.10
2008,04,03,10,03,7.10
2008,04,03,10,04,7.10
2008,04,03,10,05,7.10
2008,04,03,10,06,7.10
2008,04,03,10,07,7.10
2008,04,03,10,08,7.10
2008,04,03,10,09,7.10
2008,04,03,10,10,7.20
2008,04,03,10,11,7.20
2008,04,03,10,12,7.20
2008,04,03,10,13,7.20
2008,04,03,10,14,7.20
2008,04,03,10,15,7.20
2008,04,03,10,16,7.30
2008,04,03,10,17,7.30
2008,04,03,10,18,7.30
2008,04,03,10,19,7.30
2008,04,03,10,20,7.30
2008,04,03,10,21,7.20
2008,04,03,10,22,7.20
2008,04,03,10,23,7.20
2008,04,03,10,24,7.00
2008,04,03,10,25,6.90
2008,04,03,10,26,6.80
2008,04,03,10,27,6.80
2008,04,03,10,28,6.70
2008,04,03,10,29,6.70
2008,04,03,10,30,6.70
2008,04,03,10,31,6.70
2008,04,03,10,32,6.70
2008,04,03,10,33,6.70
2008,04,03,10,34,6.80
2008,04,03,10,35,6.80
2008,04,03,10,36,6.80
2008,04,03,10,37,6.80
2008,04,03,10,38,6.80
2008,04,03,10,39,6.90
2008,04,03,10,40,6.90
2008,04,03,10,41,7.00
2008,04,03,10,42,7.00
2008,04,03,10,43,7.10
2008,04,03,10,44,7.10
2008,04,03,10,45,7.10
2008,04,03,10,46,7.10
2008,04,03,10,47,7.20
2008,04,03,10,48,7.20
2008,04,03,10,49,7.20
2008,04,03,10,50,7.20
2008,04,03,10,51,7.20
2008,04,03,10,52,7.20
2008,04,03,10,53,7.10
2008,04,03,10,54,7.10
2008,04,03,10,55,7.20
2008,04,03,10,56,7.20
2008,04,03,10,57,7.20
2008,04,03,10,58,7.20
2008,04,03,10,59,7.20
2008,04,03,11,00,7.20
2008,04,03,11,01,7.10
2008,04,03,11,02,7.10
2008,04,03,11,03,7.10
2008,04,03,11,04,7.20
2008,04,03,11,05,7.20
2008,04,03,11,06,7.20
2008,04,03,11,07,7.10
2008,04,03,11,08,7.10
2008,04,03,11,09,7.20
2008,04,03,11,10,7.20
2008,04,03,11,11,7.20
2008,04,03,11,12,7.20
2008,04,03,11,13,7.20
2008,04,03,11,14,7.20
2008,04,03,11,15,7.10
2008,04,03,11,16,7.10
2008,04,03,11,17,6.90
2008,04,03,11,18,6.90
2008,04,03,11,19,6.90
2008,04,03,11,20,6.80
2008,04,03,11,21,6.80
2008,04,03,11,22,6.80
2008,04,03,11,23,6.80
2008,04,03,11,24,6.90
2008,04,03,11,25,6.90
2008,04,03,11,26,6.90
2008,04,03,11,27,6.90
2008,04,03,11,28,7.00
2008,04,03,11,29,7.00
2008,04,03,11,30,7.10
2008,04,03,11,31,7.10
2008,04,03,11,32,7.10
2008,04,03,11,33,7.10
2008,04,03,11,34,7.20
2008,04,03,11,35,7.20
2008,04,03,11,36,7.20
2008,04,03,11,37,7.10
2008,04,03,11,38,7.10
2008,04,03,11,39,7.20
2008,04,03,11,40,7.20
2008,04,03,11,41,7.20
2008,04,03,11,42,7.20
2008,04,03,11,43,7.20
2008,04,03,11,44,7.20
2008,04,03,11,45,7.20
2008,04,03,11,46,7.20
2008,04,03,11,47,7.20
2008,04,03,11,48,7.30
2008,04,03,11,49,7.30
2008,04,03,11,50,7.40
2008,04,03,11,51,7.40
2008,04,03,11,52,7.40
2008,04,03,11,53,7.40
2008,04,03,11,54,7.30
2008,04,03,11,55,7.20
2008,04,03,11,56,7.20
2008,04,03,11,57,7.30
2008,04,03,11,58,7.20
2008,04,03,11,59,7.20
2008,04,03,12,00,7.30
2008,04,03,12,01,7.30
2008,04,03,12,02,7.40
2008,04,03,12,03,7.40
2008,04,03,12,04,7.50
2008,04,03,12,05,7.50
2008,04,03,12,06,7.60
2008,04,03,12,07,7.60
2008,04,03,12,08,7.60
2008,04,03,12,09,7.50
2008,04,03,12,10,7.40
2008,04,03,12,11,7.40
2008,04,03,12,12,7.40
2008,04,03,12,13,7.50
2008,04,03,12,14,7.40
2008,04,03,12,15,7.40
2008,04,03,12,16,7.40
2008,04,03,12,17,7.50
2008,04,03,12,18,7.50
2008,04,03,12,19,7.50
2008,04,03,12,20,7.60
2008,04,03,12,21,7.50
2008,04,03,12,22,7.50
2008,04,03,12,23,7.50
2008,04,03,12,24,7.50
2008,04,03,12,25,7.40
2008,04,03,12,26,7.20
2008,04,03,12,27,7.20
2008,04,03,12,28,7.20
2008,04,03,12,29,7.20
2008,04,03,12,30,7.20
2008,04,03,12,31,7.20
2008,04,03,12,32,7.20
2008,04,03,12,33,7.20
2008,04,03,12,34,7.20
2008,04,03,12,35,7.20
2008,04,03,12,36,7.20
2008,04,03,12,37,7.20
2008,04,03,12,38,7.30
2008,04,03,12,39,7.40
2008,04,03,12,40,7.50
2008,04,03,12,41,7.60
2008,04,03,12,42,7.60
2008,04,03,12,43,7.60
2008,04,03,12,44,7.70
2008,04,03,12,45,7.70
2008,04,03,12,46,7.60
2008,04,03,12,47,7.50
2008,04,03,12,48,7.50
2008,04,03,12,49,7.50
2008,04,03,12,50,7.40
2008,04,03,12,51,7.30
2008,04,03,12,52,7.30
2008,04,03,12,53,7.30
2008,04,03,12,54,7.30
2008,04,03,12,55,7.40
2008,04,03,12,56,7.50
2008,04,03,12,57,7.50
2008,04,03,12,58,7.60
2008,04,03,12,59,7.70
2008,04,03,13,00,7.60
2008,04,03,13,01,7.60
2008,04,03,13,02,7.60
2008,04,03,13,03,7.70
2008,04,03,13,04,7.70
2008,04,03,13,05,7.80
2008,04,03,13,06,7.70
2008,04,03,13,07,7.70
2008,04,03,13,08,7.70
2008,04,03,13,09,7.70
2008,04,03,13,10,7.70
2008,04,03,13,11,7.70
2008,04,03,13,12,7.60
2008,04,03,13,13,7.60
2008,04,03,13,14,7.50
2008,04,03,13,15,7.50
2008,04,03,13,16,7.40
2008,04,03,13,17,7.40
2008,04,03,13,18,7.40
2008,04,03,13,19,7.40
2008,04,03,13,20,7.30
2008,04,03,13,21,7.30
2008,04,03,13,22,7.30
2008,04,03,13,23,7.30
2008,04,03,13,24,7.30
2008,04,03,13,25,7.30
2008,04,03,13,26,7.30
2008,04,03,13,27,7.20
2008,04,03,13,28,7.30
2008,04,03,13,29,7.30
2008,04,03,13,30,7.20
2008,04,03,13,31,7.20
2008,04,03,13,32,7.20
2008,04,03,13,33,7.20
2008,04,03,13,34,7.20
2008,04,03,13,35,7.20
2008,04,03,13,36,7.30
2008,04,03,13,37,7.40
2008,04,03,13,38,7.50
2008,04,03,13,39,7.50
2008,04,03,13,40,7.60
2008,04,03,13,41,7.60
2008,04,03,13,42,7.60
2008,04,03,13,43,7.70
2008,04,03,13,44,7.60
2008,04,03,13,45,7.50
2008,04,03,13,46,7.50
2008,04,03,13,47,7.50
2008,04,03,13,48,7.60
2008,04,03,13,49,7.60
2008,04,03,13,50,7.70
2008,04,03,13,51,7.70
2008,04,03,13,52,7.80
2008,04,03,13,53,7.80
2008,04,03,13,54,7.80
2008,04,03,13,55,7.70
2008,04,03,13,56,7.70
2008,04,03,13,57,7.70
2008,04,03,13,58,7.60
2008,04,03,13,59,7.60
2008,04,03,14,00,7.50
2008,04,03,14,01,7.40
2008,04,03,14,02,7.40
2008,04,03,14,03,7.40
2008,04,03,14,04,7.40
2008,04,03,14,05,7.50
2008,04,03,14,06,7.40
2008,04,03,14,07,7.40
2008,04,03,14,08,7.50
2008,04,03,14,09,7.60
2008,04,03,14,10,7.50
2008,04,03,14,11,7.40
2008,04,03,14,12,7.40
2008,04,03,14,13,7.40
2008,04,03,14,14,7.60
2008,04,03,14,15,7.70
2008,04,03,14,16,7.80
2008,04,03,14,17,7.90
2008,04,03,14,18,8.00
2008,04,03,14,19,8.00
2008,04,03,14,20,7.80
2008,04,03,14,21,7.70
2008,04,03,14,22,7.60
2008,04,03,14,23,7.60
2008,04,03,14,24,7.60
2008,04,03,14,25,7.60
2008,04,03,14,26,7.70
2008,04,03,14,27,7.60
2008,04,03,14,28,7.60
2008,04,03,14,29,7.60
2008,04,03,14,30,7.60
2008,04,03,14,31,7.70
2008,04,03,14,32,7.70
2008,04,03,14,33,7.80
2008,04,03,14,34,7.80
2008,04,03,14,35,7.80
2008,04,03,14,36,7.70
2008,04,03,14,37,7.80
2008,04,03,14,38,7.70
2008,04,03,14,39,7.60
2008,04,03,14,40,7.60
2008,04,03,14,41,7.60
2008,04,03,14,42,7.60
2008,04,03,14,43,7.50
2008,04,03,14,44,7.60
2008,04,03,14,45,7.60
2008,04,03,14,46,7.70
2008,04,03,14,47,7.80
2008,04,03,14,48,7.90
2008,04,03,14,49,7.90
2008,04,03,14,50,7.90
2008,04,03,14,51,7.90
2008,04,03,14,52,7.90
2008,04,03,14,53,7.90
2008,04,03,14,54,8.00
2008,04,03,14,55,8.00
2008,04,03,14,56,8.00
2008,04,03,14,57,8.10
2008,04,03,14,58,8.10
2008,04,03,14,59,8.20
2008,04,03,15,00,8.20
2008,04,03,15,01,8.10
2008,04,03,15,02,8.00
2008,04,03,15,03,8.00
2008,04,03,15,04,7.90
2008,04,03,15,05,7.90
2008,04,03,15,06,7.90
2008,04,03,15,07,7.90
2008,04,03,15,08,7.90
2008,04,03,15,09,7.90
2008,04,03,15,10,8.00
2008,04,03,15,11,8.10
2008,04,03,15,12,8.20
2008,04,03,15,13,8.20
2008,04,03,15,14,8.20
2008,04,03,15,15,8.30
2008,04,03,15,16,8.30
2008,04,03,15,17,8.30
2008,04,03,15,18,8.20
2008,04,03,15,19,8.20
2008,04,03,15,20,8.20
2008,04,03,15,21,8.20
2008,04,03,15,22,8.20
2008,04,03,15,23,8.20
2008,04,03,15,24,8.30
2008,04,03,15,25,8.30
2008,04,03,15,26,8.40
2008,04,03,15,27,8.50
2008,04,03,15,28,8.40
2008,04,03,15,29,8.30
2008,04,03,15,30,8.30
2008,04,03,15,31,8.30
2008,04,03,15,32,8.40
2008,04,03,15,33,8.50
2008,04,03,15,34,8.50
2008,04,03,15,35,8.50
2008,04,03,15,36,8.60
2008,04,03,15,37,8.60
2008,04,03,15,38,8.70
2008,04,03,15,39,8.70
2008,04,03,15,40,8.70
2008,04,03,15,41,8.70
2008,04,03,15,42,8.80
2008,04,03,15,43,8.80
2008,04,03,15,44,8.90
2008,04,03,15,45,8.90
2008,04,03,15,46,8.80
2008,04,03,15,47,8.70
2008,04,03,15,48,8.60
2008,04,03,15,49,8.50
2008,04,03,15,50,8.40
2008,04,03,15,51,8.30
2008,04,03,15,52,8.30
2008,04,03,15,53,8.40
2008,04,03,15,54,8.40
2008,04,03,15,55,8.50
2008,04,03,15,56,8.60
2008,04,03,15,57,8.60
2008,04,03,15,58,8.60
2008,04,03,15,59,8.60
2008,04,03,16,00,8.70
2008,04,03,16,01,8.70
2008,04,03,16,02,8.80
2008,04,03,16,03,8.80
2008,04,03,16,04,8.70
2008,04,03,16,05,8.60
2008,04,03,16,06,8.60
2008,04,03,16,07,8.70
2008,04,03,16,08,8.70
2008,04,03,16,09,8.70
2008,04,03,16,10,8.70
2008,04,03,16,11,8.60
2008,04,03,16,12,8.60
2008,04,03,16,13,8.60
2008,04,03,16,14,8.60
2008,04,03,16,15,8.60
2008,04,03,16,16,8.70
2008,04,03,16,17,8.70
2008,04,03,16,18,8.60
2008,04,03,16,19,8.60
2008,04,03,16,20,8.60
2008,04,03,16,21,8.60
2008,04,03,16,22,8.70
2008,04,03,16,23,8.80
2008,04,03,16,24,8.80
2008,04,03,16,25,8.80
2008,04,03,16,26,8.80
2008,04,03,16,27,8.90
2008,04,03,16,28,8.90
2008,04,03,16,29,8.90
2008,04,03,16,30,8.90
2008,04,03,16,31,8.90
2008,04,03,16,32,8.90
2008,04,03,16,33,9.00
2008,04,03,16,34,9.00
2008,04,03,16,35,9.00
2008,04,03,16,36,8.90
2008,04,03,16,37,8.90
2008,04,03,16,38,8.90
2008,04,03,16,39,8.90
2008,04,03,16,40,8.90
2008,04,03,16,41,8.90
2008,04,03,16,42,8.80
2008,04,03,16,43,8.80
2008,04,03,16,44,8.80
2008,04,03,16,45,8.70
2008,04,03,16,46,8.70
2008,04,03,16,47,8.70
2008,04,03,16,48,8.70
2008,04,03,16,49,8.70
2008,04,03,16,50,8.70
2008,04,03,16,51,8.70
2008,04,03,16,52,8.80
2008,04,03,16,53,8.80
2008,04,03,16,54,8.80
2008,04,03,16,55,8.80
2008,04,03,16,56,8.80
2008,04,03,16,57,8.80
2008,04,03,16,58,8.80
2008,04,03,16,59,8.80
2008,04,03,17,00,8.80
2008,04,03,17,01,8.80
2008,04,03,17,02,8.70
2008,04,03,17,03,8.70
2008,04,03,17,04,8.60
2008,04,03,17,05,8.60
2008,04,03,17,06,8.70
2008,04,03,17,07,8.70
2008,04,03,17,08,8.70
2008,04,03,17,09,8.70
2008,04,03,17,10,8.70
2008,04,03,17,11,8.70
2008,04,03,17,12,8.70
2008,04,03,17,13,8.60
2008,04,03,17,14,8.60
2008,04,03,17,15,8.60
2008,04,03,17,16,8.70
2008,04,03,17,17,8.70
2008,04,03,17,18,8.70
2008,04,03,17,19,8.70
2008,04,03,17,20,8.60
2008,04,03,17,21,8.60
2008,04,03,17,22,8.60
2008,04,03,17,23,8.60
2008,04,03,17,24,8.70
2008,04,03,17,25,8.70
2008,04,03,17,26,8.70
2008,04,03,17,27,8.70
2008,04,03,17,28,8.80
2008,04,03,17,29,8.70
2008,04,03,17,30,8.70
2008,04,03,17,31,8.60
2008,04,03,17,32,8.60
2008,04,03,17,33,8.60
2008,04,03,17,34,8.40
2008,04,03,17,35,8.30
2008,04,03,17,36,8.20
2008,04,03,17,37,8.20
2008,04,03,17,38,8.20
2008,04,03,17,39,8.20
2008,04,03,17,40,8.10
2008,04,03,17,41,8.10
2008,04,03,17,42,8.10
2008,04,03,17,43,8.10
2008,04,03,17,44,8.10
2008,04,03,17,45,8.20
2008,04,03,17,46,8.20
2008,04,03,17,47,8.10
2008,04,03,17,48,8.10
2008,04,03,17,49,8.10
2008,04,03,17,50,8.10
2008,04,03,17,51,8.10
2008,04,03,17,52,8.10
2008,04,03,17,53,8.10
2008,04,03,17,54,8.10
2008,04,03,17,55,8.10
2008,04,03,17,56,8.10
2008,04,03,17,57,8.10
2008,04,03,17,58,8.10
2008,04,03,17,59,8.10
2008,04,03,18,00,8.00
2008,04,03,18,01,8.00